Location: Gro�sch�nbrunn
(49.5760°N, 11.8868°E)
Time: 13:21:03
(UTC+00:00)

Cosmos 1892 Rocket - Pass Details

Date: 18 September 2020
Orbit: 606 x 633 km, 82.5° (Epoch: 22 October)

Event Time Altitude Azimuth Distance (km) Brightness Sun altitude
Rises 20:14:37 0° 348° (NNW) 2,878 7.7 -27.1°
Reaches altitude 10° 20:16:51 10° 347° (NNW) 1,968 6.8 -27.4°
Enters shadow 20:20:07 49° 333° (NNW) 787 4.3 -27.8°
